2023/01/23 00:00:00,24.6, 0.8
2023/01/23 00:10:00,24.7, 1.0
2023/01/23 00:20:00,24.9, 1.0
2023/01/23 00:30:00,24.9, 0.9
2023/01/23 00:40:00,24.9, 0.6
2023/01/23 00:50:00,24.9, 0.8
2023/01/23 01:00:00,24.9, 0.6
2023/01/23 01:10:00,24.9, 0.8
2023/01/23 01:20:00,25.0, 0.8
2023/01/23 01:30:00,25.4, 0.7
2023/01/23 01:40:00,25.5, 0.9
2023/01/23 01:50:00,25.8, 0.9
2023/01/23 02:00:00,25.9, 0.8
2023/01/23 02:10:00,26.0, 0.8
2023/01/23 02:20:00,26.1, 0.8
2023/01/23 02:30:00,26.3, 0.8
2023/01/23 02:40:00,26.2, 0.8
2023/01/23 02:50:00,26.2, 1.2
2023/01/23 03:00:00,26.2, 0.9
2023/01/23 03:10:00,26.2, 0.9
2023/01/23 03:20:00,26.4, 0.9
2023/01/23 03:30:00,26.7, 0.8
2023/01/23 03:40:00,27.2, 1.0
2023/01/23 03:50:00,28.0, 0.4
2023/01/23 04:00:00,28.4, 0.8
2023/01/23 04:10:00,28.9, 0.7
2023/01/23 04:20:00,29.3, 0.9
2023/01/23 04:30:00,29.5, 1.0
2023/01/23 04:40:00,29.6, 0.7
2023/01/23 04:50:00,29.8, 0.7
2023/01/23 05:00:00,29.9, 0.9
2023/01/23 05:10:00,29.9, 0.9
2023/01/23 05:20:00,30.0, 1.0
2023/01/23 05:30:00,30.2, 0.9
2023/01/23 05:40:00,30.3, 0.7
2023/01/23 05:50:00,30.4, 0.6
2023/01/23 06:00:00,30.5, 0.8
2023/01/23 06:10:00,30.5, 0.9
2023/01/23 06:20:00,30.7, 0.6
2023/01/23 06:30:00,30.9, 0.8
2023/01/23 06:40:00,31.0, 0.7
2023/01/23 06:50:00,31.0, 0.8
2023/01/23 07:00:00,30.9, 0.6
2023/01/23 07:10:00,30.9, 1.4
2023/01/23 07:20:00,30.9, 0.6
2023/01/23 07:30:00,30.9, 0.9
2023/01/23 07:40:00,30.8, 0.8
2023/01/23 07:50:00,30.8, 1.0
2023/01/23 08:00:00,30.7, 1.1
2023/01/23 08:10:00,30.7, 1.3
2023/01/23 08:20:00,30.8, 1.4
2023/01/23 08:30:00,30.8, 1.6
2023/01/23 08:40:00,30.7, 1.7
2023/01/23 08:50:00,30.8, 1.5
2023/01/23 09:00:00,30.7, 2.4
2023/01/23 09:10:00,30.7, 1.8
2023/01/23 09:20:00,30.8, 1.6
2023/01/23 09:30:00,30.8, 2.0
2023/01/23 09:40:00,30.9, 1.9
2023/01/23 09:50:00,30.9, 2.4
2023/01/23 10:00:00,30.8, 3.3
2023/01/23 10:10:00,30.8, 3.7
2023/01/23 10:20:00,31.0, 5.0
2023/01/23 10:30:00,31.1, 7.0
2023/01/23 10:40:00,31.2, 7.4
2023/01/23 10:50:00,31.2, 8.0
2023/01/23 11:00:00,31.2, 9.3
2023/01/23 11:10:00,31.2, 9.5
2023/01/23 11:20:00,31.1, 9.8
2023/01/23 11:30:00,30.9,10.9
2023/01/23 11:40:00,30.7, 9.1
2023/01/23 11:50:00,29.5, 6.9
2023/01/23 12:00:00,29.2, 5.4
2023/01/23 12:10:00,29.2, 5.6
2023/01/23 12:20:00,29.0, 6.3
2023/01/23 12:30:00,28.5, 5.9
2023/01/23 12:40:00,28.3, 4.6
2023/01/23 12:50:00,28.2, 4.2
2023/01/23 13:00:00,28.0, 4.2
2023/01/23 13:10:00,28.0, 4.3
2023/01/23 13:20:00,27.8, 4.2
2023/01/23 13:30:00,27.5, 3.9
2023/01/23 13:40:00,27.3, 3.9
2023/01/23 13:50:00,27.3, 4.6
2023/01/23 14:00:00,27.4, 7.8
2023/01/23 14:10:00,27.4,13.7
2023/01/23 14:20:00,26.9,10.6
2023/01/23 14:30:00,26.3, 6.8
2023/01/23 14:40:00,26.1, 5.8
2023/01/23 14:50:00,26.0, 5.6
2023/01/23 15:00:00,25.9, 5.4
2023/01/23 15:10:00,25.9, 5.0
2023/01/23 15:20:00,25.9, 5.2
2023/01/23 15:30:00,25.7, 4.8
2023/01/23 15:40:00,25.6, 4.5
2023/01/23 15:50:00,25.7, 4.8
2023/01/23 16:00:00,25.6, 5.8
2023/01/23 16:10:00,25.5, 7.7
2023/01/23 16:20:00,25.5, 5.2
2023/01/23 16:30:00,25.4, 4.3
2023/01/23 16:40:00,25.3, 3.6
2023/01/23 16:50:00,25.2, 3.0
2023/01/23 17:00:00,25.1, 2.9
2023/01/23 17:10:00,25.1, 2.7
2023/01/23 17:20:00,25.2, 2.4
2023/01/23 17:30:00,25.1, 2.2
2023/01/23 17:40:00,25.1, 1.9
2023/01/23 17:50:00,25.1, 2.0
2023/01/23 18:00:00,25.1, 2.2
2023/01/23 18:10:00,25.2, 2.1
2023/01/23 18:20:00,25.2, 1.9
2023/01/23 18:30:00,25.1, 1.7
2023/01/23 18:40:00,25.2, 1.7
2023/01/23 18:50:00,25.1, 1.7
2023/01/23 19:00:00,25.1, 2.1
2023/01/23 19:10:00,25.1, 1.4
2023/01/23 19:20:00,25.2, 1.3
2023/01/23 19:30:00,25.1, 1.0
2023/01/23 19:40:00,25.1, 1.0
2023/01/23 19:50:00,25.1, 1.2
2023/01/23 20:00:00,25.1, 1.0
2023/01/23 20:10:00,25.0, 1.1
2023/01/23 20:20:00,25.1, 1.3
2023/01/23 20:30:00,25.0, 1.2
2023/01/23 20:40:00,24.9, 1.5
2023/01/23 20:50:00,24.9, 1.5
2023/01/23 21:00:00,24.9, 1.5
2023/01/23 21:10:00,24.9, 1.4
2023/01/23 21:20:00,24.9, 0.9
2023/01/23 21:30:00,24.9, 0.9
2023/01/23 21:40:00,24.9, 0.9
2023/01/23 21:50:00,24.9, 1.0
2023/01/23 22:00:00,24.9, 1.0
2023/01/23 22:10:00,24.9, 0.8
2023/01/23 22:20:00,24.8, 1.1
2023/01/23 22:30:00,24.8, 1.2
2023/01/23 22:40:00,24.8, 1.4
2023/01/23 22:50:00,24.8, 1.3
2023/01/23 23:00:00,24.8, 1.4
2023/01/23 23:10:00,24.8, 1.5
2023/01/23 23:20:00,24.8, 1.3
2023/01/23 23:30:00,24.7, 1.4
2023/01/23 23:40:00,24.7, 1.6
2023/01/23 23:50:00,24.7, 1.5
